SAS69B EPKK-EKCH

Flight info

Callsign SAS69B
Flight time 1h 16m
Altitude 38000
Route LUMVE L619 NUDRO DCT BINKA DCT PENET T298 MONAK
Aircraft A20N/M-SDE2E3FGHIRWXY/LB1

Departure

Time 2026-04-26 18:50
Airport Kraków John Paul II International Airport (EPKK)

Arrival

Time 2026-04-26 20:06
Airport Copenhagen Kastrup Airport (EKCH)
Time Latitude Longitude Altitude Speed Heading
2026-04-26 18:09 50.07340 19.80116 790 ft 0 kts 168°
2026-04-26 18:33 50.07346 19.80114 790 ft 2 kts 168°
2026-04-26 18:33 50.07365 19.80107 789 ft 3 kts 166°
2026-04-26 18:34 50.07385 19.80099 777 ft 3 kts 158°
2026-04-26 18:34 50.07402 19.80085 799 ft 3 kts 125°
2026-04-26 18:34 50.07406 19.80066 791 ft 2 kts 78°
2026-04-26 18:34 50.07404 19.80048 791 ft 1 kts 78°
2026-04-26 18:35 50.07404 19.80047 791 ft 0 kts 78°
2026-04-26 18:40 50.07407 19.80067 790 ft 5 kts 78°
2026-04-26 18:40 50.07416 19.80137 790 ft 8 kts 78°
2026-04-26 18:40 50.07430 19.80232 790 ft 10 kts 78°
2026-04-26 18:40 50.07451 19.80352 790 ft 12 kts 59°
2026-04-26 18:41 50.07526 19.80403 790 ft 11 kts 16°
2026-04-26 18:41 50.07604 19.80418 790 ft 12 kts 352°
2026-04-26 18:41 50.07684 19.80392 790 ft 12 kts 347°
2026-04-26 18:41 50.07758 19.80366 790 ft 9 kts 347°
2026-04-26 18:42 50.07792 19.80355 791 ft 1 kts 348°
2026-04-26 18:42 50.07803 19.80351 791 ft 0 kts 347°
2026-04-26 18:44 50.07810 19.80348 791 ft 3 kts 347°
2026-04-26 18:44 50.07832 19.80340 790 ft 4 kts 346°
2026-04-26 18:45 50.07843 19.80336 790 ft 1 kts 346°
2026-04-26 18:45 50.07846 19.80335 790 ft 0 kts 346°
2026-04-26 18:47 50.07856 19.80331 790 ft 4 kts 346°
2026-04-26 18:47 50.07899 19.80316 790 ft 9 kts 348°
2026-04-26 18:47 50.07972 19.80290 789 ft 12 kts 346°
2026-04-26 18:48 50.08013 19.80191 790 ft 12 kts 260°
2026-04-26 18:48 50.08011 19.80176 790 ft 0 kts 257°
2026-04-26 18:48 50.08011 19.80175 790 ft 1 kts 257°
2026-04-26 18:49 50.07989 19.80019 790 ft 42 kts 258°
2026-04-26 18:49 50.07874 19.79205 790 ft 108 kts 257°
2026-04-26 18:49 50.07689 19.77793 827 ft 153 kts 256°
2026-04-26 18:49 50.07465 19.76222 1388 ft 151 kts 260°
2026-04-26 18:50 50.07223 19.74582 2005 ft 156 kts 261°
2026-04-26 18:50 50.06985 19.72938 2609 ft 160 kts 262°
2026-04-26 18:50 50.06743 19.71170 3047 ft 175 kts 265°
2026-04-26 18:50 50.06915 19.69262 3479 ft 187 kts 300°
2026-04-26 18:51 50.07656 19.67469 3929 ft 208 kts 308°
2026-04-26 18:51 50.08579 19.65578 4470 ft 229 kts 310°
2026-04-26 18:51 50.09593 19.63533 5132 ft 246 kts 309°
2026-04-26 18:51 50.10637 19.61373 6075 ft 250 kts 308°
2026-04-26 18:52 50.11670 19.59190 7053 ft 253 kts 308°
2026-04-26 18:52 50.12709 19.56968 8035 ft 254 kts 308°
2026-04-26 18:52 50.13749 19.54728 9051 ft 256 kts 308°
2026-04-26 18:52 50.14784 19.52498 10011 ft 258 kts 308°
2026-04-26 18:53 50.15842 19.50217 10800 ft 266 kts 309°
2026-04-26 18:53 50.16984 19.47768 11157 ft 289 kts 308°
2026-04-26 18:53 50.18206 19.45144 11573 ft 306 kts 308°
2026-04-26 18:53 50.19454 19.42451 12423 ft 308 kts 308°
2026-04-26 18:54 50.20285 19.40656 13025 ft 309 kts 308°
2026-04-26 18:54 50.20402 19.40402 13110 ft 309 kts 308°
2026-04-26 18:55 50.21544 19.37933 13908 ft 311 kts 308°
2026-04-26 18:55 50.22819 19.35177 14717 ft 313 kts 308°
2026-04-26 18:55 50.24100 19.32406 15453 ft 316 kts 308°
2026-04-26 18:55 50.25397 19.29599 16172 ft 320 kts 308°
2026-04-26 18:56 50.26671 19.26838 16873 ft 323 kts 308°
2026-04-26 18:56 50.28023 19.23907 17625 ft 326 kts 308°
2026-04-26 18:56 50.29357 19.21011 18320 ft 330 kts 308°
2026-04-26 18:56 50.30706 19.18078 18970 ft 333 kts 308°
2026-04-26 18:57 50.32046 19.15162 19591 ft 335 kts 308°
2026-04-26 18:57 50.32502 19.14170 19806 ft 336 kts 308°
2026-04-26 18:57 50.34785 19.09194 20860 ft 340 kts 307°
2026-04-26 18:57 50.36164 19.06181 21482 ft 342 kts 307°
2026-04-26 18:58 50.37555 19.03142 22104 ft 345 kts 307°
2026-04-26 18:58 50.38959 19.00073 22687 ft 348 kts 306°
2026-04-26 18:58 50.40370 18.96982 23282 ft 350 kts 306°
2026-04-26 18:58 50.41793 18.93863 23853 ft 353 kts 306°
2026-04-26 18:59 50.43224 18.90722 24350 ft 356 kts 306°
2026-04-26 18:59 50.44673 18.87538 24836 ft 358 kts 306°
2026-04-26 18:59 50.46126 18.84338 25331 ft 360 kts 306°
2026-04-26 18:59 50.47583 18.81126 25793 ft 363 kts 305°
2026-04-26 19:00 50.49155 18.77996 26228 ft 366 kts 313°
2026-04-26 19:00 50.51056 18.75389 26652 ft 370 kts 318°
2026-04-26 19:00 50.53053 18.72790 27086 ft 373 kts 318°
2026-04-26 19:00 50.55066 18.70199 27521 ft 375 kts 319°
2026-04-26 19:01 50.57102 18.67610 27931 ft 378 kts 319°
2026-04-26 19:01 50.59155 18.65023 28330 ft 380 kts 319°
2026-04-26 19:01 50.61231 18.62416 28732 ft 382 kts 319°
2026-04-26 19:01 50.63314 18.59802 29107 ft 384 kts 319°
2026-04-26 19:02 50.65413 18.57164 29464 ft 387 kts 319°
2026-04-26 19:02 50.67524 18.54510 29823 ft 389 kts 319°
2026-04-26 19:02 50.69648 18.51833 30160 ft 392 kts 319°
2026-04-26 19:02 50.70367 18.50926 30279 ft 392 kts 319°
2026-04-26 19:03 50.73205 18.47340 30695 ft 395 kts 319°
2026-04-26 19:03 50.75353 18.44622 30997 ft 398 kts 319°
2026-04-26 19:03 50.77517 18.41879 31288 ft 400 kts 319°
2026-04-26 19:03 50.79687 18.39127 31640 ft 400 kts 319°
2026-04-26 19:04 50.81861 18.36365 32039 ft 400 kts 319°
2026-04-26 19:04 50.84029 18.33609 32445 ft 399 kts 319°
2026-04-26 19:04 50.86192 18.30853 32840 ft 398 kts 319°
2026-04-26 19:04 50.88341 18.28113 33220 ft 397 kts 318°
2026-04-26 19:05 50.92645 18.22613 33964 ft 396 kts 318°
2026-04-26 19:05 50.94753 18.19915 34319 ft 395 kts 318°
2026-04-26 19:05 50.96920 18.17137 34616 ft 394 kts 318°
2026-04-26 19:06 50.99032 18.14426 34872 ft 395 kts 318°
2026-04-26 19:06 51.01172 18.11675 35121 ft 395 kts 318°
2026-04-26 19:06 51.03305 18.08931 35371 ft 395 kts 318°
2026-04-26 19:06 51.05443 18.06177 35611 ft 395 kts 318°
2026-04-26 19:07 51.07585 18.03413 35843 ft 396 kts 318°
2026-04-26 19:07 51.09721 18.00655 36075 ft 396 kts 318°
2026-04-26 19:07 51.11831 17.97928 36299 ft 396 kts 318°
2026-04-26 19:07 51.13975 17.95153 36520 ft 396 kts 319°
2026-04-26 19:08 51.16107 17.92390 36732 ft 396 kts 319°
2026-04-26 19:08 51.18245 17.89616 36945 ft 396 kts 319°
2026-04-26 19:08 51.20383 17.86839 37158 ft 396 kts 319°
2026-04-26 19:08 51.22516 17.84064 37360 ft 396 kts 319°
2026-04-26 19:09 51.24646 17.81291 37552 ft 396 kts 319°
2026-04-26 19:09 51.26784 17.78503 37746 ft 396 kts 319°
2026-04-26 19:09 51.28918 17.75717 37944 ft 396 kts 319°
2026-04-26 19:09 51.31042 17.72942 38146 ft 395 kts 319°
2026-04-26 19:10 51.33176 17.70149 38296 ft 396 kts 319°
2026-04-26 19:10 51.37412 17.64596 38296 ft 394 kts 319°
2026-04-26 19:11 51.41654 17.59022 38296 ft 394 kts 319°
2026-04-26 19:11 51.45897 17.53432 38292 ft 394 kts 319°
2026-04-26 19:12 51.50131 17.47841 38292 ft 394 kts 319°
2026-04-26 19:12 51.54364 17.42236 38305 ft 394 kts 318°
2026-04-26 19:13 51.58603 17.36610 38304 ft 395 kts 318°
2026-04-26 19:13 51.62810 17.31013 38308 ft 395 kts 318°
2026-04-26 19:14 51.67034 17.25379 38298 ft 392 kts 318°
2026-04-26 19:14 51.71246 17.19746 38297 ft 393 kts 318°
2026-04-26 19:15 51.75448 17.14114 38295 ft 393 kts 318°
2026-04-26 19:15 51.79636 17.08486 38299 ft 393 kts 318°
2026-04-26 19:16 51.83832 17.02833 38297 ft 393 kts 318°
2026-04-26 19:16 51.88032 16.97160 38300 ft 393 kts 318°
2026-04-26 19:17 51.92214 16.91497 38300 ft 393 kts 318°
2026-04-26 19:17 51.96414 16.85796 38305 ft 393 kts 318°
2026-04-26 19:18 52.00613 16.80081 38307 ft 393 kts 318°
2026-04-26 19:18 52.04774 16.74405 38307 ft 393 kts 318°
2026-04-26 19:19 52.08964 16.68673 38303 ft 393 kts 318°
2026-04-26 19:19 52.13147 16.62937 38307 ft 392 kts 317°
2026-04-26 19:20 52.17157 16.57424 38307 ft 392 kts 317°
2026-04-26 19:20 52.21325 16.51681 38307 ft 391 kts 317°
2026-04-26 19:21 52.25453 16.45977 38298 ft 391 kts 317°
2026-04-26 19:21 52.29678 16.40420 38314 ft 392 kts 327°
2026-04-26 19:21 52.32192 16.38585 38293 ft 398 kts 339°
2026-04-26 19:22 52.34938 16.37810 38284 ft 407 kts 352°
2026-04-26 19:22 52.37795 16.38150 38281 ft 416 kts
2026-04-26 19:22 52.40648 16.39138 38280 ft 418 kts
2026-04-26 19:23 52.46330 16.41227 38281 ft 419 kts
2026-04-26 19:23 52.51954 16.41732 38281 ft 400 kts 343°
2026-04-26 19:23 52.54568 16.40378 38298 ft 391 kts 330°
2026-04-26 19:24 52.56865 16.38026 38307 ft 389 kts 317°
2026-04-26 19:24 52.62095 16.27879 38309 ft 387 kts 309°
2026-04-26 19:25 52.65091 16.22349 38310 ft 390 kts 313°
2026-04-26 19:25 52.69532 16.14759 38307 ft 399 kts 314°
2026-04-26 19:26 52.73404 16.08215 38312 ft 399 kts 314°
2026-04-26 19:26 52.77277 16.01640 38307 ft 399 kts 314°
2026-04-26 19:27 52.81138 15.95060 38310 ft 399 kts 314°
2026-04-26 19:27 52.85004 15.88452 38315 ft 399 kts 314°
2026-04-26 19:28 52.88863 15.81837 38309 ft 399 kts 314°
2026-04-26 19:28 52.92715 15.75218 38309 ft 399 kts 313°
2026-04-26 19:29 52.96547 15.68616 38309 ft 399 kts 313°
2026-04-26 19:29 53.00398 15.61963 38308 ft 400 kts 313°
2026-04-26 19:30 53.04250 15.55290 38310 ft 400 kts 313°
2026-04-26 19:30 53.07446 15.49739 38311 ft 400 kts 313°
2026-04-26 19:31 53.11947 15.41900 38316 ft 400 kts 313°
2026-04-26 19:31 53.15792 15.35184 38314 ft 401 kts 313°
2026-04-26 19:32 53.19617 15.28484 38313 ft 401 kts 313°
2026-04-26 19:32 53.23464 15.21725 38316 ft 401 kts 313°
2026-04-26 19:33 53.27429 15.15162 38313 ft 401 kts 315°
2026-04-26 19:33 53.31398 15.08568 38308 ft 402 kts 315°
2026-04-26 19:34 53.35383 15.02081 38304 ft 402 kts 315°
2026-04-26 19:34 53.39418 14.95587 38302 ft 402 kts 315°
2026-04-26 19:35 53.43456 14.89077 38297 ft 403 kts 315°
2026-04-26 19:35 53.47494 14.82547 38297 ft 403 kts 315°
2026-04-26 19:36 53.50847 14.77110 38295 ft 403 kts 315°
2026-04-26 19:36 53.55544 14.69471 38297 ft 404 kts 315°
2026-04-26 19:37 53.59579 14.62889 38301 ft 404 kts 315°
2026-04-26 19:37 53.63608 14.56299 38304 ft 404 kts 315°
2026-04-26 19:38 53.67643 14.49680 38309 ft 404 kts 315°
2026-04-26 19:38 53.71668 14.43058 38302 ft 404 kts 315°
2026-04-26 19:39 53.75674 14.36450 38300 ft 404 kts 315°
2026-04-26 19:39 53.79699 14.29791 38295 ft 404 kts 315°
2026-04-26 19:40 53.83717 14.23126 38293 ft 404 kts 315°
2026-04-26 19:40 53.87733 14.16444 38293 ft 404 kts 315°
2026-04-26 19:41 53.91746 14.09748 38297 ft 405 kts 315°
2026-04-26 19:41 53.94402 14.05307 38296 ft 405 kts 315°
2026-04-26 19:42 53.99734 13.96363 38302 ft 405 kts 315°
2026-04-26 19:42 54.03734 13.89633 38305 ft 404 kts 315°
2026-04-26 19:43 54.07735 13.82880 38304 ft 404 kts 315°
2026-04-26 19:43 54.11733 13.76114 38302 ft 404 kts 315°
2026-04-26 19:44 54.15696 13.69388 38302 ft 404 kts 315°
2026-04-26 19:44 54.19676 13.62613 38279 ft 404 kts 315°
2026-04-26 19:45 54.21670 13.59211 37990 ft 405 kts 315°
2026-04-26 19:45 54.23664 13.55806 37413 ft 404 kts 315°
2026-04-26 19:45 54.25640 13.52426 36749 ft 400 kts 314°
2026-04-26 19:45 54.27606 13.49061 36112 ft 400 kts 314°
2026-04-26 19:46 54.29580 13.45675 35486 ft 402 kts 314°
2026-04-26 19:46 54.31561 13.42272 34879 ft 403 kts 314°
2026-04-26 19:46 54.33536 13.38877 34284 ft 403 kts 314°
2026-04-26 19:46 54.35502 13.35490 33627 ft 406 kts 314°
2026-04-26 19:47 54.37501 13.32039 33002 ft 407 kts 314°
2026-04-26 19:47 54.38176 13.30873 32778 ft 407 kts 314°
2026-04-26 19:47 54.41477 13.25162 31700 ft 405 kts 314°
2026-04-26 19:47 54.43458 13.21728 31072 ft 405 kts 314°
2026-04-26 19:48 54.45441 13.18285 30458 ft 405 kts 314°
2026-04-26 19:48 54.47415 13.14854 29758 ft 402 kts 314°
2026-04-26 19:48 54.49373 13.11446 29057 ft 399 kts 314°
2026-04-26 19:48 54.51309 13.08070 28372 ft 395 kts 314°
2026-04-26 19:49 54.53233 13.04711 27702 ft 392 kts 314°
2026-04-26 19:49 54.55138 13.01382 27048 ft 388 kts 314°
2026-04-26 19:49 54.57024 12.98078 26410 ft 385 kts 314°
2026-04-26 19:49 54.58893 12.94802 25786 ft 382 kts 314°
2026-04-26 19:50 54.60723 12.91588 25179 ft 379 kts 314°
2026-04-26 19:50 54.62560 12.88357 24586 ft 376 kts 314°
2026-04-26 19:50 54.64385 12.85142 23997 ft 373 kts 314°
2026-04-26 19:50 54.66245 12.82022 23324 ft 370 kts 320°
2026-04-26 19:51 54.68383 12.79659 22693 ft 362 kts 333°
2026-04-26 19:51 54.69951 12.78688 22123 ft 361 kts 343°
2026-04-26 19:51 54.73222 12.77743 20937 ft 358 kts 348°
2026-04-26 19:51 54.75678 12.77108 20100 ft 354 kts 348°
2026-04-26 19:52 54.78115 12.76488 19284 ft 351 kts 348°
2026-04-26 19:52 54.79706 12.76085 18766 ft 348 kts 348°
2026-04-26 19:52 54.82096 12.75480 17899 ft 345 kts 348°
2026-04-26 19:52 54.84454 12.74883 17095 ft 340 kts 348°
2026-04-26 19:53 54.87528 12.74102 16040 ft 334 kts 348°
2026-04-26 19:53 54.89075 12.73708 15516 ft 331 kts 348°
2026-04-26 19:53 54.91348 12.73129 14769 ft 327 kts 348°
2026-04-26 19:53 54.93584 12.72559 14031 ft 323 kts 348°
2026-04-26 19:54 54.95794 12.71994 13229 ft 319 kts 348°
2026-04-26 19:54 54.97956 12.71441 12429 ft 316 kts 349°
2026-04-26 19:54 55.00122 12.70885 11660 ft 313 kts 349°
2026-04-26 19:54 55.02267 12.70335 10860 ft 311 kts 349°
2026-04-26 19:55 55.04396 12.69788 10289 ft 303 kts 349°
2026-04-26 19:55 55.06419 12.69274 10105 ft 283 kts 349°
2026-04-26 19:55 55.08306 12.68794 9790 ft 268 kts 349°
2026-04-26 19:55 55.10123 12.68327 9394 ft 259 kts 348°
2026-04-26 19:56 55.11916 12.67862 9287 ft 264 kts 348°
2026-04-26 19:56 55.13736 12.67388 9267 ft 263 kts 348°
2026-04-26 19:56 55.15542 12.66921 9267 ft 262 kts 348°
2026-04-26 19:56 55.17344 12.66456 9268 ft 262 kts 348°
2026-04-26 19:57 55.19150 12.65989 9267 ft 262 kts 348°
2026-04-26 19:57 55.20835 12.64916 9271 ft 257 kts 326°
2026-04-26 19:57 55.22303 12.63198 9127 ft 256 kts 325°
2026-04-26 19:57 55.23772 12.61452 8733 ft 254 kts 325°
2026-04-26 19:58 55.25237 12.59713 8122 ft 255 kts 325°
2026-04-26 19:58 55.26708 12.57966 7587 ft 252 kts 325°
2026-04-26 19:58 55.28113 12.56303 7418 ft 235 kts 325°
2026-04-26 19:58 55.29350 12.54842 7220 ft 223 kts 325°
2026-04-26 19:59 55.30630 12.53330 6730 ft 221 kts 325°
2026-04-26 19:59 55.31908 12.51824 6246 ft 222 kts 325°
2026-04-26 19:59 55.33154 12.50235 5869 ft 220 kts 317°
2026-04-26 19:59 55.34242 12.48400 5487 ft 219 kts 315°
2026-04-26 20:00 55.35323 12.46523 5140 ft 216 kts 315°
2026-04-26 20:00 55.36364 12.44717 4993 ft 201 kts 315°
2026-04-26 20:00 55.37301 12.43095 4988 ft 179 kts 315°
2026-04-26 20:00 55.38178 12.41580 5032 ft 180 kts 315°
2026-04-26 20:01 55.39061 12.40052 5049 ft 175 kts 315°
2026-04-26 20:01 55.39945 12.38634 4818 ft 173 kts 327°
2026-04-26 20:01 55.41127 12.38230 4398 ft 181 kts
2026-04-26 20:01 55.42345 12.38891 4000 ft 185 kts 15°
2026-04-26 20:02 55.43562 12.39633 3619 ft 186 kts 15°
2026-04-26 20:02 55.44787 12.40385 3254 ft 186 kts 15°
2026-04-26 20:02 55.46001 12.41126 2962 ft 183 kts 16°
2026-04-26 20:02 55.46768 12.41724 2897 ft 186 kts 25°
2026-04-26 20:03 55.48209 12.43481 2786 ft 191 kts 36°
2026-04-26 20:03 55.49224 12.45008 2685 ft 192 kts 38°
2026-04-26 20:03 55.50233 12.46554 2457 ft 191 kts 38°
2026-04-26 20:03 55.51237 12.48094 2210 ft 191 kts 38°
2026-04-26 20:04 55.52240 12.49633 1952 ft 190 kts 39°
2026-04-26 20:04 55.53231 12.51154 1686 ft 188 kts 39°
2026-04-26 20:04 55.54217 12.52668 1426 ft 188 kts 39°
2026-04-26 20:04 55.55184 12.54153 1160 ft 187 kts 40°
2026-04-26 20:05 55.56165 12.55662 908 ft 185 kts 40°
2026-04-26 20:05 55.57113 12.57120 650 ft 175 kts 41°
2026-04-26 20:05 55.57989 12.58468 414 ft 159 kts 41°
2026-04-26 20:05 55.58799 12.59707 168 ft 149 kts 41°
2026-04-26 20:06 55.59547 12.60866 25 ft 134 kts 40°
2026-04-26 20:06 55.60093 12.61705 23 ft 72 kts 41°
2026-04-26 20:06 55.60423 12.62199 22 ft 47 kts 37°
2026-04-26 20:06 55.60631 12.62344 28 ft 20 kts 11°
2026-04-26 20:07 55.60731 12.62377 30 ft 9 kts 12°
2026-04-26 20:07 55.60796 12.62420 25 ft 10 kts 31°
2026-04-26 20:07 55.60856 12.62503 26 ft 13 kts 42°
2026-04-26 20:07 55.60933 12.62621 25 ft 15 kts 40°
2026-04-26 20:08 55.61016 12.62746 25 ft 17 kts 40°
2026-04-26 20:08 55.61111 12.62893 24 ft 19 kts 43°
2026-04-26 20:08 55.61203 12.63040 28 ft 15 kts 41°
2026-04-26 20:08 55.61286 12.63167 28 ft 16 kts 41°
2026-04-26 20:09 55.61380 12.63316 27 ft 20 kts 40°
2026-04-26 20:09 55.61474 12.63459 26 ft 15 kts 41°
2026-04-26 20:09 55.61562 12.63595 23 ft 17 kts 41°
2026-04-26 20:09 55.61655 12.63739 28 ft 19 kts 40°
2026-04-26 20:10 55.61748 12.63883 27 ft 16 kts 43°
2026-04-26 20:10 55.61827 12.64011 31 ft 16 kts 42°
2026-04-26 20:10 55.61881 12.64082 26 ft 9 kts 32°
2026-04-26 20:10 55.61956 12.64144 23 ft 15 kts 25°
2026-04-26 20:11 55.62063 12.64233 21 ft 16 kts 26°
2026-04-26 20:11 55.62145 12.64304 16 ft 9 kts 25°
2026-04-26 20:11 55.62214 12.64361 17 ft 12 kts 24°
2026-04-26 20:12 55.62389 12.64447 19 ft 15 kts 21°
2026-04-26 20:12 55.62479 12.64481 20 ft 13 kts 351°
2026-04-26 20:12 55.62533 12.64378 20 ft 10 kts 304°
2026-04-26 20:12 55.62575 12.64275 22 ft 11 kts 316°
2026-04-26 20:13 55.62650 12.64302 21 ft 11 kts 26°
2026-04-26 20:13 55.62703 12.64343 20 ft 8 kts 22°
2026-04-26 20:13 55.62750 12.64382 21 ft 8 kts 32°
2026-04-26 20:13 55.62757 12.64445 19 ft 1 kts 105°
2026-04-26 20:14 55.62753 12.64472 18 ft 2 kts 104°
2026-04-26 20:14 55.62751 12.64482 18 ft 0 kts 104°